When you browse on this site, cookies collect data to enhance your experience and personalize the content and advertising you see.
Visit our Privacy Policy to learn more. By continuing to use the site, you agree to this use of cookies and data.
  • In Österreich
  • Länderverzeichnis
  • Für 7 Tage
  • Wassertemperatur
  • Wetterkarte
  • News
  • Widgets
  • user-avatar
    Anmelden

    Stündliche Wetter Sylchet

    Heute, 18 August, Sonntag

    Zeit Temperatur Niederschläge Wind Luftdruck Luftfeuchtigkeit
    00:00 +28°C° 0 mm 1 m/S 753 mmHg 93%
    01:00 +28°C° 0.1 mm 1 m/S 752 mmHg 94%
    02:00 +28°C° 0.1 mm 2 m/S 752 mmHg 94%
    03:00 +27°C° 0.1 mm 2 m/S 752 mmHg 94%
    04:00 +27°C° 0 mm 1 m/S 752 mmHg 94%
    05:00 +27°C° 0 mm 1 m/S 752 mmHg 94%
    06:00 +28°C° 0 mm 1 m/S 753 mmHg 95%
    07:00 +29°C° 0.1 mm 2 m/S 753 mmHg 88%
    08:00 +30°C° 0.1 mm 2 m/S 753 mmHg 81%
    09:00 +32°C° 0.1 mm 2 m/S 754 mmHg 75%
    10:00 +32°C° 0.5 mm 2 m/S 753 mmHg 72%
    11:00 +34°C° 0.5 mm 2 m/S 753 mmHg 70%
    12:00 +34°C° 0 mm 1 m/S 753 mmHg 63%
    13:00 +34°C° 1.1 mm 1 m/S 753 mmHg 63%
    14:00 +34°C° 1.1 mm 1 m/S 752 mmHg 63%
    15:00 +34°C° 1.1 mm 1 m/S 752 mmHg 63%
    16:00 +34°C° 0.4 mm 2 m/S 752 mmHg 69%
    17:00 +32°C° 0.4 mm 2 m/S 751 mmHg 74%
    18:00 +31°C° 0.4 mm 3 m/S 751 mmHg 80%
    19:00 +30°C° 0.6 mm 3 m/S 752 mmHg 83%
    20:00 +29°C° 0.6 mm 3 m/S 753 mmHg 87%
    21:00 +28°C° 0.6 mm 3 m/S 754 mmHg 90%
    22:00 +28°C° 0 mm 3 m/S 754 mmHg 91%
    23:00 +28°C° 0 mm 2 m/S 754 mmHg 92%

    Morgen, 19 August, Montag

    Zeit Temperatur Niederschläge Wind Luftdruck Luftfeuchtigkeit
    00:00 +27°C° 0 mm 2 m/S 754 mmHg 93%
    01:00 +27°C° 0.1 mm 2 m/S 754 mmHg 94%
    02:00 +27°C° 0.1 mm 1 m/S 754 mmHg 94%
    03:00 +27°C° 0.1 mm 1 m/S 754 mmHg 94%
    04:00 +27°C° 0.3 mm 1 m/S 754 mmHg 94%
    05:00 +27°C° 0.3 mm 2 m/S 754 mmHg 94%
    06:00 +27°C° 0.3 mm 2 m/S 754 mmHg 93%
    07:00 +28°C° 0.1 mm 2 m/S 754 mmHg 87%
    08:00 +30°C° 0.1 mm 2 m/S 754 mmHg 82%
    09:00 +31°C° 0.1 mm 2 m/S 755 mmHg 76%
    10:00 +32°C° 0.4 mm 2 m/S 754 mmHg 72%
    11:00 +34°C° 0.4 mm 2 m/S 754 mmHg 67%
    12:00 +35°C° 0.4 mm 2 m/S 753 mmHg 62%
    13:00 +35°C° 0.6 mm 2 m/S 753 mmHg 64%
    14:00 +35°C° 0.6 mm 3 m/S 752 mmHg 65%
    15:00 +35°C° 0.6 mm 3 m/S 752 mmHg 67%
    16:00 +34°C° 1.2 mm 3 m/S 751 mmHg 72%
    17:00 +32°C° 1.2 mm 2 m/S 751 mmHg 77%
    18:00 +31°C° 1.2 mm 2 m/S 751 mmHg 83%
    19:00 +30°C° 0.8 mm 2 m/S 752 mmHg 84%
    20:00 +29°C° 0.8 mm 3 m/S 753 mmHg 86%
    21:00 +29°C° 0.8 mm 3 m/S 754 mmHg 88%
    22:00 +28°C° 0.2 mm 3 m/S 754 mmHg 89%
    23:00 +28°C° 0.2 mm 2 m/S 754 mmHg 90%

    übermorgen, 20 August, Dienstag

    Zeit Temperatur Niederschläge Wind Luftdruck Luftfeuchtigkeit
    00:00 +27°C° 0.2 mm 2 m/S 754 mmHg 92%
    01:00 +27°C° 0.2 mm 2 m/S 753 mmHg 93%
    02:00 +27°C° 0.2 mm 2 m/S 753 mmHg 94%
    03:00 +27°C° 0.2 mm 2 m/S 753 mmHg 95%
    04:00 +27°C° 0.1 mm 2 m/S 753 mmHg 95%
    05:00 +27°C° 0.1 mm 2 m/S 753 mmHg 95%
    06:00 +27°C° 0.1 mm 2 m/S 753 mmHg 95%
    07:00 +28°C° 0.1 mm 2 m/S 754 mmHg 89%
    08:00 +30°C° 0.1 mm 2 m/S 754 mmHg 82%
    09:00 +31°C° 0.1 mm 2 m/S 754 mmHg 76%
    10:00 +32°C° 0.1 mm 2 m/S 754 mmHg 72%
    11:00 +34°C° 0.1 mm 2 m/S 753 mmHg 68%
    12:00 +35°C° 0.1 mm 2 m/S 753 mmHg 64%
    13:00 +35°C° 0 mm 2 m/S 752 mmHg 63%
    14:00 +35°C° 0 mm 2 m/S 751 mmHg 62%
    15:00 +36°C° 0 mm 2 m/S 750 mmHg 60%
    16:00 +35°C° 0.1 mm 2 m/S 750 mmHg 65%
    17:00 +34°C° 0.1 mm 2 m/S 750 mmHg 69%
    18:00 +32°C° 0.1 mm 2 m/S 750 mmHg 73%
    19:00 +31°C° 0.4 mm 2 m/S 751 mmHg 77%
    20:00 +30°C° 0.4 mm 2 m/S 751 mmHg 80%
    21:00 +30°C° 0.4 mm 3 m/S 752 mmHg 84%
    22:00 +29°C° 0.2 mm 2 m/S 752 mmHg 85%
    23:00 +29°C° 0.2 mm 2 m/S 752 mmHg 87%

    21 August, Mittwoch

    Zeit Temperatur Niederschläge Wind Luftdruck Luftfeuchtigkeit
    00:00 +28°C° 0.2 mm 2 m/S 752 mmHg 89%
    01:00 +28°C° 0 mm 2 m/S 752 mmHg 90%
    02:00 +27°C° 0 mm 2 m/S 752 mmHg 91%
    03:00 +27°C° 0 mm 2 m/S 752 mmHg 93%
    04:00 +27°C° 0 mm 2 m/S 752 mmHg 93%
    05:00 +27°C° 0 mm 1 m/S 752 mmHg 94%
    06:00 +27°C° 0 mm 1 m/S 752 mmHg 95%
    07:00 +29°C° 0 mm 1 m/S 752 mmHg 88%
    08:00 +30°C° 0 mm 1 m/S 752 mmHg 81%
    09:00 +32°C° 0 mm 1 m/S 752 mmHg 74%
    10:00 +33°C° 0 mm 1 m/S 752 mmHg 69%
    11:00 +34°C° 0 mm 1 m/S 751 mmHg 64%
    12:00 +35°C° 0 mm 1 m/S 751 mmHg 59%
    13:00 +35°C° 0 mm 1 m/S 750 mmHg 58%
    14:00 +35°C° 0 mm 1 m/S 749 mmHg 56%
    15:00 +37°C° 0 mm 2 m/S 749 mmHg 55%
    16:00 +36°C° 0 mm 2 m/S 748 mmHg 60%
    17:00 +35°C° 0 mm 2 m/S 748 mmHg 65%
    18:00 +34°C° 0 mm 2 m/S 748 mmHg 70%
    19:00 +32°C° 0 mm 2 m/S 749 mmHg 73%
    20:00 +31°C° 0 mm 2 m/S 750 mmHg 75%
    21:00 +30°C° 0 mm 2 m/S 751 mmHg 78%
    22:00 +30°C° 0 mm 2 m/S 751 mmHg 79%
    23:00 +29°C° 0 mm 3 m/S 751 mmHg 81%

    22 August, Donnerstag

    Zeit Temperatur Niederschläge Wind Luftdruck Luftfeuchtigkeit
    00:00 +29°C° 0 mm 3 m/S 751 mmHg 82%
    01:00 +28°C° 0 mm 3 m/S 750 mmHg 84%
    02:00 +28°C° 0 mm 3 m/S 750 mmHg 86%
    03:00 +28°C° 0 mm 2 m/S 750 mmHg 88%
    04:00 +28°C° 0 mm 2 m/S 750 mmHg 89%
    05:00 +28°C° 0 mm 1 m/S 750 mmHg 91%
    06:00 +28°C° 0 mm 1 m/S 750 mmHg 92%
    07:00 +29°C° 0 mm 1 m/S 751 mmHg 86%
    08:00 +30°C° 0 mm 2 m/S 751 mmHg 80%
    09:00 +31°C° 0 mm 2 m/S 752 mmHg 75%
    10:00 +32°C° 0.1 mm 2 m/S 751 mmHg 70%
    11:00 +34°C° 0.1 mm 2 m/S 751 mmHg 66%
    12:00 +35°C° 0.1 mm 2 m/S 750 mmHg 62%
    13:00 +35°C° 0 mm 2 m/S 750 mmHg 63%
    14:00 +35°C° 0 mm 2 m/S 749 mmHg 63%
    15:00 +35°C° 0 mm 2 m/S 748 mmHg 64%
    16:00 +34°C° 0.1 mm 2 m/S 748 mmHg 69%
    17:00 +32°C° 0.1 mm 2 m/S 749 mmHg 74%
    18:00 +31°C° 0.1 mm 2 m/S 749 mmHg 79%
    19:00 +31°C° 0.4 mm 2 m/S 750 mmHg 81%
    20:00 +30°C° 0.4 mm 2 m/S 750 mmHg 83%
    21:00 +29°C° 0.4 mm 2 m/S 751 mmHg 85%
    22:00 +29°C° 0.4 mm 2 m/S 751 mmHg 86%
    23:00 +28°C° 0.4 mm 2 m/S 751 mmHg 87%

    23 August, Freitag

    Zeit Temperatur Niederschläge Wind Luftdruck Luftfeuchtigkeit
    00:00 +28°C° 0.4 mm 2 m/S 751 mmHg 88%
    01:00 +28°C° 0.2 mm 2 m/S 751 mmHg 90%
    02:00 +28°C° 0.2 mm 2 m/S 751 mmHg 91%
    03:00 +27°C° 0.2 mm 1 m/S 750 mmHg 92%
    04:00 +27°C° 0 mm 1 m/S 751 mmHg 92%
    05:00 +27°C° 0 mm 1 m/S 751 mmHg 92%
    06:00 +27°C° 0 mm 1 m/S 751 mmHg 92%
    07:00 +28°C° 0 mm 1 m/S 752 mmHg 90%
    08:00 +28°C° 0 mm 2 m/S 752 mmHg 89%
    09:00 +28°C° 0 mm 2 m/S 753 mmHg 87%
    10:00 +29°C° 0.3 mm 2 m/S 752 mmHg 87%
    11:00 +29°C° 0.3 mm 2 m/S 752 mmHg 86%
    12:00 +29°C° 0.3 mm 3 m/S 752 mmHg 85%
    13:00 +29°C° 0.2 mm 3 m/S 752 mmHg 87%
    14:00 +28°C° 0.2 mm 3 m/S 752 mmHg 89%
    15:00 +28°C° 0.2 mm 3 m/S 751 mmHg 90%
    16:00 +27°C° 0 mm 3 m/S 751 mmHg 91%
    17:00 +27°C° 0 mm 2 m/S 752 mmHg 92%
    18:00 +27°C° 0 mm 2 m/S 752 mmHg 92%
    19:00 +27°C° 0 mm 2 m/S 752 mmHg 92%
    20:00 +27°C° 0 mm 2 m/S 753 mmHg 92%
    21:00 +27°C° 0 mm 2 m/S 753 mmHg 92%
    22:00 +27°C° 0 mm 2 m/S 753 mmHg 92%
    23:00 +27°C° 0 mm 2 m/S 753 mmHg 92%
    Mehr zeigen